User: anonymous   Login
Location: Franzen
(48.6167°N, 15.3833°E)
Time: 09:48:36
(UTC+00:00)
Language:

Cosmos 192 - Orbit

View from above orbital plane
View from above orbital plane
View from above satellite
View from above satellite

Ground track
Ground track

The orbit data is extracted from the following two-line orbital elements,

1 03047U 67116A   21164.64765962  .00000038  00000-0  15207-4 0  9994
2 03047  74.0127 251.9773 0007693 155.3883 204.7649 14.55681350832260
Epoch (UTC): 13 June 2021 15:32:37
Eccentricity: 0.0007693
inclination: 74.0127°
perigee height: 702 km
apogee height: 712 km
right ascension of ascending node: 251.9773°
argument of perigee: 155.3883°
revolutions per day: 14.55681350
mean anomaly at epoch: 204.7649°
orbit number at epoch: 83226

The dashed part of the orbit path shows where the satellite is in the earth's shadow,  

DLR